| time (UTC) | temp C | wind direction | speed KPH | gust KPH | rain 1hr cm | rain 24hr cm | rain mn cm | humidity % | barometer mb |
| 20260504220035 | 25 | 261 | 3.2 | 11.3 | 0.00 | 0.00 | 0.00 | 33 | 1011.5 |
| 20260504214532 | 25 | 217 | 0.0 | 4.8 | 0.00 | 0.00 | 0.00 | 33 | 1011.5 |
| 20260504213032 | 26 | 204 | 1.6 | 11.3 | 0.00 | 0.00 | 0.00 | 31 | 1011.4 |
| 20260504211533 | 26 | 18 | 0.0 | 8.0 | 0.00 | 0.00 | 0.00 | 31 | 1011.5 |
| 20260504210034 | 26 | 334 | 0.0 | 11.3 | 0.00 | 0.00 | 0.00 | 31 | 1011.6 |
| 20260504204527 | 26 | 198 | 0.0 | 8.0 | 0.00 | 0.00 | 0.00 | 32 | 1011.7 |
| 20260504203039 | 26 | 78 | 0.0 | 6.4 | 0.00 | 0.00 | 0.00 | 29 | 1011.8 |
| 20260504201527 | 26 | 141 | 0.0 | 11.3 | 0.00 | 0.00 | 0.00 | 30 | 1011.8 |
| 20260504200025 | 26 | 317 | 0.0 | 8.0 | 0.00 | 0.00 | 0.00 | 30 | 1012.1 |
| 20260504194523 | 26 | 233 | 1.6 | 6.4 | 0.00 | 0.00 | 0.00 | 29 | 1012.3 |
| 20260504193023 | 26 | 196 | 0.0 | 9.7 | 0.00 | 0.00 | 0.00 | 29 | 1012.4 |
| 20260504191524 | 26 | 239 | 1.6 | 11.3 | 0.00 | 0.00 | 0.00 | 29 | 1012.7 |
| 20260504190016 | 26 | 55 | 0.0 | 14.5 | 0.00 | 0.00 | 0.00 | 29 | 1012.9 |
| 20260504184514 | 25 | 227 | 0.0 | 8.0 | 0.00 | 0.00 | 0.00 | 30 | 1013.1 |
| 20260504183012 | 24 | 360 | 0.0 | 8.0 | 0.00 | 0.00 | 0.00 | 32 | 1013.3 |
| 20260504181512 | 25 | 134 | 0.0 | 9.7 | 0.00 | 0.00 | 0.00 | 31 | 1013.4 |
| 20260504180011 | 24 | 273 | 0.0 | 3.2 | 0.00 | 0.00 | 0.00 | 30 | 1013.6 |
| 20260504174511 | 25 | 190 | 1.6 | 9.7 | 0.00 | 0.00 | 0.00 | 29 | 1013.8 |
| 20260504173010 | 25 | 103 | 0.0 | 11.3 | 0.00 | 0.00 | 0.00 | 29 | 1013.6 |
| 20260504171506 | 25 | 151 | 1.6 | 11.3 | 0.00 | 0.00 | 0.00 | 29 | 1014.0 |
| 20260504081514 | 10 | 159 | 0.0 | 6.4 | 0.00 | 0.00 | 0.00 | 59 | 1016.8 |
| 20260504050012 | 8 | 209 | 0.0 | 0.0 | 0.00 | 0.00 | 0.00 | 71 | 1016.7 |
| 20260504044515 | 8 | 209 | 0.0 | 0.0 | 0.00 | 0.00 | 0.00 | 72 | 1016.7 |
| 20260504043010 | 8 | 209 | 0.0 | 0.0 | 0.00 | 0.00 | 0.00 | 71 | 1016.6 |
| 20260504041509 | 8 | 209 | 0.0 | 0.0 | 0.00 | 0.00 | 0.00 | 68 | 1016.6 |
| 20260504040008 | 8 | 209 | 0.0 | 0.0 | 0.00 | 0.00 | 0.00 | 71 | 1016.5 |
| 20260504034508 | 8 | 209 | 0.0 | 0.0 | 0.00 | 0.00 | 0.00 | 72 | 1016.4 |
| 20260504033008 | 7 | 209 | 0.0 | 0.0 | 0.00 | 0.00 | 0.00 | 71 | 1016.5 |
| 20260504031507 | 7 | 209 | 0.0 | 0.0 | 0.00 | 0.00 | 0.00 | 70 | 1016.6 |
| 20260504030005 | 8 | 209 | 0.0 | 0.0 | 0.00 | 0.00 | 0.00 | 68 | 1016.5 |
| 20260504024504 | 8 | 209 | 0.0 | 0.0 | 0.00 | 0.00 | 0.00 | 68 | 1016.5 |
| 20260504023003 | 8 | 209 | 0.0 | 0.0 | 0.00 | 0.00 | 0.00 | 68 | 1016.5 |
| 20260504021601 | 8 | 209 | 0.0 | 0.0 | 0.00 | 0.00 | 0.00 | 66 | 1016.4 |
| 20260504020056 | 8 | 209 | 0.0 | 0.0 | 0.00 | 0.00 | 0.00 | 64 | 1016.3 |
| 20260504014600 | 9 | 209 | 0.0 | 0.0 | 0.00 | 0.00 | 0.00 | 63 | 1016.3 |
| 20260504013056 | 10 | 209 | 0.0 | 0.0 | 0.00 | 0.00 | 0.00 | 61 | 1016.2 |
| 20260504011549 | 10 | 209 | 0.0 | 0.0 | 0.00 | 0.00 | 0.00 | 59 | 1016.1 |
| 20260504010051 | 11 | 209 | 0.0 | 0.0 | 0.00 | 0.00 | 0.00 | 57 | 1016.2 |
| 20260504004539 | 11 | 209 | 0.0 | 0.0 | 0.00 | 0.00 | 0.00 | 54 | 1016.1 |
| 20260504003041 | 12 | 209 | 0.0 | 0.0 | 0.00 | 0.00 | 0.00 | 50 | 1015.9 |
| 20260504001540 | 13 | 209 | 0.0 | 0.0 | 0.00 | 0.00 | 0.00 | 51 | 1015.9 |
| 20260504000039 | 13 | 209 | 0.0 | 0.0 | 0.00 | 0.00 | 0.00 | 46 | 1015.6 |
| 20260503234525 | 14 | 209 | 0.0 | 0.0 | 0.00 | 0.00 | 0.00 | 41 | 1015.5 |
| 20260503233024 | 15 | 209 | 0.0 | 0.0 | 0.00 | 0.00 | 0.00 | 39 | 1015.4 |
| 20260503231520 | 15 | 209 | 0.0 | 0.0 | 0.00 | 0.00 | 0.00 | 37 | 1015.3 |
| 20260503230017 | 16 | 209 | 0.0 | 0.0 | 0.00 | 0.00 | 0.00 | 35 | 1015.3 |
| 20260503224514 | 16 | 209 | 0.0 | 0.0 | 0.00 | 0.00 | 0.00 | 32 | 1015.5 |
| 20260503223011 | 16 | 274 | 0.0 | 3.2 | 0.00 | 0.00 | 0.00 | 31 | 1015.5 |
| 20260503221508 | 17 | 219 | 0.0 | 6.4 | 0.00 | 0.00 | 0.00 | 30 | 1015.6 |